This demonstration page uses our WeatherBlox Daily Observations layout. Learn more.

Left ArrowRight Arrow

44.89941, -97.11507

Hourly Observations for May 26, 2019

Temp ( °F °C ) Dew Point ( °F °C ) Humidity (%) Winds ( mph kmh ) Pressure ( in mb ) Visibility ( mi km ) Precip ( " mm )
12:53 am 00:53 Clear 47 8.3 44 6.7 90 90 Calm 30.04 1017 10 16 0.00 0.00
1:32 am 01:32 Clear with Mist and Fog 43 6.1 42 5.6 97 97 N 3 6 30.06 1018 1 2 0.00 0.00
1:40 am 01:40 Clear with Mist and Fog 44 6.7 42 5.6 93 93 N 3 6 30.05 1018 1 1 0.00 0.00
1:42 am 01:42 Clear with Mist and Fog 45 7.2 43 6.1 93 93 Calm 30.06 1018 2 3 0.00 0.00
1:44 am 01:44 Clear with Mist and Fog 45 7.2 43 6.1 93 93 N 3 6 30.06 1018 3 5 0.00 0.00
1:53 am 01:53 Clear 46 7.8 44 6.7 93 93 Calm 30.04 1017 10 16 0.00 0.00
2:53 am 02:53 Clear 43 6.1 41 5 93 93 Calm 30.06 1018 10 16 0.00 0.00
3:53 am 03:53 Clear 44 6.7 42 5.6 93 93 Calm 30.07 1018 8 13 0.00 0.00
4:25 am 04:25 Clear with Mist and Fog 43 6.1 41 5 93 93 Calm 30.09 1019 2 3 0.00 0.00
4:31 am 04:31 Clear with Mist and Fog 42 5.6 40 4.4 92 92 Calm 30.09 1019 1 1 0.00 0.00
4:42 am 04:42 Clear with Mist and Fog 42 5.6 40 4.4 92 92 Calm 30.09 1019 2 2 0.00 0.00
4:44 am 04:44 Clear with Mist and Fog 43 6.1 41 5 93 93 Calm 30.09 1019 3 5 0.00 0.00
4:53 am 04:53 Clear 43 6.1 42 5.6 97 97 Calm 30.07 1018 10 16 0.00 0.00
5:36 am 05:36 Mostly Cloudy with Mist and Fog 41 5 39 3.9 93 93 Calm 30.10 1019 1 2 0.00 0.00
5:43 am 05:43 Mostly Cloudy with Fog 41 5 40 4.4 96 96 Calm 30.11 1020 1 1 0.00 0.00
5:53 am 05:53 Sunny with Fog 41 5 40 4.4 96 96 Calm 30.08 1019 0 0 0.00 0.00
6:17 am 06:17 Sunny with Mist and Fog 42 5.6 40 4.4 92 92 Calm 30.11 1020 1 2 0.00 0.00
6:20 am 06:20 Sunny with Mist and Fog 42 5.6 40 4.4 92 92 Calm 30.11 1020 3 4 0.00 0.00
6:36 am 06:36 Sunny with Mist and Fog 42 5.6 42 5.6 100 100 Calm 30.11 1020 6 10 0.00 0.00
6:53 am 06:53 Sunny 43 6.1 42 5.6 97 97 Calm 30.09 1019 7 11 0.00 0.00
7:53 am 07:53 Sunny 53 11.7 47 8.3 80 80 SE 5 7 30.08 1019 10 16 0.00 0.00
8:53 am 08:53 Sunny 58 14.4 50 10 75 75 S 7 11 30.09 1019 10 16 0.00 0.00
9:53 am 09:53 Sunny 61 16.1 49 9.4 65 65 SSE 8 13 30.08 1019 10 16 0.00 0.00
10:53 am 10:53 Sunny 63 17.2 49 9.4 60 60 SSE 8 13 30.08 1019 10 16 0.00 0.00
11:53 am 11:53 Sunny 66 18.9 50 10 56 56 VRB 7 11 30.09 1019 10 16 0.00 0.00
12:53 pm 12:53 Sunny 67 19.4 51 10.6 57 57 SSE 12 19 30.06 1018 10 16 0.00 0.00
1:53 pm 13:53 Sunny 68 20 49 9.4 51 51 SSE 12 19 30.06 1018 10 16 0.00 0.00
2:53 pm 14:53 Sunny 70 21.1 51 10.6 51 51 S 9 15 30.05 1018 10 16 0.00 0.00
3:53 pm 15:53 Sunny 70 21.1 49 9.4 47 47 SSE 9 15 30.04 1017 10 16 0.00 0.00
4:53 pm 16:53 Sunny 72 22.2 49 9.4 44 44 ESE 7 11 30.03 1017 10 16 0.00 0.00
5:53 pm 17:53 Sunny 72 22.2 48 8.9 43 43 ESE 8 13 29.98 1015 10 16 0.00 0.00
6:53 pm 18:53 Sunny 70 21.1 51 10.6 51 51 E 12 19 29.95 1014 10 16 0.00 0.00
7:53 pm 19:53 Sunny 68 20 51 10.6 55 55 E 13 20 29.95 1014 10 16 0.00 0.00
8:53 pm 20:53 Sunny 65 18.3 49 9.4 56 56 E 12 19 29.94 1014 8 13 0.00 0.00
9:53 pm 21:53 Clear 63 17.2 50 10 63 63 E 10 17 29.96 1015 10 16 0.00 0.00
10:53 pm 22:53 Clear 62 16.7 50 10 65 65 E 9 15 29.96 1014 10 16 0.00 0.00
11:53 pm 23:53 Clear 62 16.7 49 9.4 62 62 ENE 13 20 29.95 1014 10 16 0.00 0.00

Powered by AerisWeather